SHT9Z EGPH-EGLL

Flight info

Callsign SHT9Z
Flight time 0h 56m
Altitude 23000
Route TLA N864 DCS L612 LAKEY/N0448F330 DCT NUGRA
Aircraft A21N/M-SDE3FGHIRWY/LB1

Departure

Time 2026-04-24 09:08
Airport Edinburgh Airport (EGPH)

Arrival

Time 2026-04-24 10:05
Airport London Heathrow Airport (EGLL)
Time Latitude Longitude Altitude Speed Heading
2026-04-24 08:34 55.94864 -3.36616 101 ft 0 kts 146°
2026-04-24 08:58 55.94866 -3.36618 101 ft 2 kts 146°
2026-04-24 08:58 55.94879 -3.36633 101 ft 2 kts 146°
2026-04-24 08:58 55.94892 -3.36649 101 ft 2 kts 146°
2026-04-24 08:59 55.94900 -3.36659 101 ft 2 kts 146°
2026-04-24 08:59 55.94910 -3.36681 101 ft 2 kts 103°
2026-04-24 08:59 55.94909 -3.36709 101 ft 1 kts 68°
2026-04-24 08:59 55.94906 -3.36720 100 ft 1 kts 53°
2026-04-24 09:00 55.94904 -3.36726 100 ft 0 kts 58°
2026-04-24 09:03 55.94907 -3.36717 100 ft 2 kts 58°
2026-04-24 09:04 55.94927 -3.36658 101 ft 8 kts 58°
2026-04-24 09:04 55.94967 -3.36539 101 ft 12 kts 59°
2026-04-24 09:04 55.95010 -3.36416 102 ft 9 kts 52°
2026-04-24 09:04 55.95067 -3.36399 102 ft 9 kts 356°
2026-04-24 09:05 55.95118 -3.36329 102 ft 10 kts 57°
2026-04-24 09:05 55.95159 -3.36205 102 ft 12 kts 59°
2026-04-24 09:05 55.95206 -3.36068 102 ft 13 kts 59°
2026-04-24 09:05 55.95258 -3.35914 102 ft 14 kts 59°
2026-04-24 09:06 55.95311 -3.35758 102 ft 14 kts 59°
2026-04-24 09:06 55.95361 -3.35612 101 ft 11 kts 59°
2026-04-24 09:06 55.95398 -3.35503 101 ft 10 kts 59°
2026-04-24 09:06 55.95443 -3.35411 101 ft 9 kts 20°
2026-04-24 09:07 55.95503 -3.35444 100 ft 9 kts 330°
2026-04-24 09:07 55.95565 -3.35511 99 ft 6 kts 326°
2026-04-24 09:07 55.95536 -3.35665 99 ft 24 kts 239°
2026-04-24 09:08 55.95301 -3.36355 102 ft 101 kts 239°
2026-04-24 09:08 55.94814 -3.37798 100 ft 163 kts 239°
2026-04-24 09:08 55.94170 -3.39695 532 ft 179 kts 239°
2026-04-24 09:08 55.93506 -3.41609 1252 ft 182 kts 239°
2026-04-24 09:09 55.92829 -3.43555 2052 ft 181 kts 239°
2026-04-24 09:09 55.92155 -3.45501 2613 ft 190 kts 239°
2026-04-24 09:09 55.91420 -3.47632 3051 ft 207 kts 239°
2026-04-24 09:09 55.90683 -3.50040 3468 ft 225 kts 249°
2026-04-24 09:10 55.90219 -3.52886 3847 ft 247 kts 260°
2026-04-24 09:10 55.89901 -3.56029 4417 ft 262 kts 262°
2026-04-24 09:10 55.89590 -3.59326 5189 ft 267 kts 262°
2026-04-24 09:10 55.89267 -3.62689 5730 ft 269 kts 261°
2026-04-24 09:11 55.88935 -3.66079 5924 ft 269 kts 260°
2026-04-24 09:11 55.88599 -3.69446 5922 ft 269 kts 260°
2026-04-24 09:11 55.88266 -3.72753 5927 ft 269 kts 260°
2026-04-24 09:11 55.87929 -3.76086 6131 ft 276 kts 260°
2026-04-24 09:12 55.87603 -3.79516 6959 ft 278 kts 265°
2026-04-24 09:12 55.87632 -3.82943 7871 ft 276 kts 275°
2026-04-24 09:12 55.87791 -3.86499 8672 ft 280 kts 276°
2026-04-24 09:12 55.87956 -3.90022 9455 ft 284 kts 276°
2026-04-24 09:13 55.88109 -3.93549 10210 ft 288 kts 275°
2026-04-24 09:13 55.88243 -3.97173 10861 ft 294 kts 271°
2026-04-24 09:13 55.87876 -4.00871 11208 ft 313 kts 249°
2026-04-24 09:13 55.86646 -4.04302 11513 ft 332 kts 230°
2026-04-24 09:14 55.85052 -4.07500 11974 ft 345 kts 229°
2026-04-24 09:14 55.83561 -4.10979 12643 ft 348 kts 238°
2026-04-24 09:14 55.82197 -4.14657 13419 ft 351 kts 233°
2026-04-24 09:14 55.80416 -4.17683 14046 ft 355 kts 219°
2026-04-24 09:15 55.78443 -4.20376 14728 ft 359 kts 218°
2026-04-24 09:15 55.76446 -4.23001 15380 ft 361 kts 217°
2026-04-24 09:15 55.74365 -4.25581 15983 ft 365 kts 211°
2026-04-24 09:15 55.71907 -4.27097 16542 ft 370 kts 187°
2026-04-24 09:16 55.69312 -4.26790 17156 ft 371 kts 165°
2026-04-24 09:16 55.66894 -4.24864 17786 ft 372 kts 150°
2026-04-24 09:16 55.64608 -4.22544 18398 ft 374 kts 150°
2026-04-24 09:16 55.62348 -4.20265 18971 ft 377 kts 150°
2026-04-24 09:17 55.59967 -4.17893 19545 ft 381 kts 150°
2026-04-24 09:17 55.57570 -4.15529 20100 ft 385 kts 150°
2026-04-24 09:17 55.55175 -4.13183 20639 ft 388 kts 150°
2026-04-24 09:17 55.52830 -4.10895 21144 ft 391 kts 150°
2026-04-24 09:18 55.50447 -4.08573 21637 ft 395 kts 150°
2026-04-24 09:18 55.48012 -4.06205 22120 ft 399 kts 150°
2026-04-24 09:18 55.45480 -4.03749 22625 ft 402 kts 150°
2026-04-24 09:18 55.42902 -4.01251 23141 ft 405 kts 150°
2026-04-24 09:19 55.40310 -3.98740 23633 ft 408 kts 150°
2026-04-24 09:19 55.37713 -3.96229 24115 ft 410 kts 150°
2026-04-24 09:19 55.35123 -3.93726 24570 ft 413 kts 150°
2026-04-24 09:19 55.32521 -3.91216 24997 ft 416 kts 149°
2026-04-24 09:20 55.29853 -3.88647 25406 ft 419 kts 149°
2026-04-24 09:20 55.27197 -3.86093 25801 ft 422 kts 149°
2026-04-24 09:20 55.24505 -3.83508 26189 ft 425 kts 149°
2026-04-24 09:20 55.21818 -3.80935 26565 ft 427 kts 149°
2026-04-24 09:21 55.19057 -3.78297 26919 ft 431 kts 149°
2026-04-24 09:21 55.16271 -3.75637 27270 ft 433 kts 149°
2026-04-24 09:21 55.13562 -3.73053 27613 ft 436 kts 149°
2026-04-24 09:21 55.10840 -3.70460 27945 ft 438 kts 149°
2026-04-24 09:22 55.08022 -3.67780 28296 ft 440 kts 149°
2026-04-24 09:22 55.05277 -3.65172 28606 ft 442 kts 149°
2026-04-24 09:22 55.02439 -3.62483 28907 ft 445 kts 149°
2026-04-24 09:22 54.99600 -3.59796 29222 ft 447 kts 149°
2026-04-24 09:23 54.96790 -3.57142 29502 ft 449 kts 149°
2026-04-24 09:23 54.94037 -3.54552 29776 ft 451 kts 149°
2026-04-24 09:23 54.91251 -3.51928 30030 ft 454 kts 148°
2026-04-24 09:23 54.88390 -3.49240 30279 ft 456 kts 148°
2026-04-24 09:24 54.85540 -3.46565 30566 ft 457 kts 148°
2026-04-24 09:24 54.82668 -3.43871 30905 ft 456 kts 148°
2026-04-24 09:24 54.79715 -3.41108 31242 ft 456 kts 148°
2026-04-24 09:24 54.76852 -3.38434 31535 ft 456 kts 148°
2026-04-24 09:25 54.73974 -3.35750 31780 ft 457 kts 148°
2026-04-24 09:25 54.71047 -3.33238 32002 ft 460 kts 153°
2026-04-24 09:25 54.68081 -3.30995 32214 ft 462 kts 154°
2026-04-24 09:25 54.65119 -3.28776 32427 ft 462 kts 154°
2026-04-24 09:26 54.62103 -3.26516 32652 ft 463 kts 154°
2026-04-24 09:26 54.59096 -3.24263 32841 ft 465 kts 154°
2026-04-24 09:26 54.55973 -3.21925 33024 ft 466 kts 154°
2026-04-24 09:26 54.52909 -3.19636 33197 ft 468 kts 154°
2026-04-24 09:27 54.49902 -3.17394 33312 ft 469 kts 154°
2026-04-24 09:27 54.46768 -3.15060 33321 ft 470 kts 154°
2026-04-24 09:27 54.40535 -3.10433 33325 ft 470 kts 154°
2026-04-24 09:28 54.34465 -3.05938 33325 ft 470 kts 154°
2026-04-24 09:28 54.28294 -3.01384 33328 ft 471 kts 154°
2026-04-24 09:29 54.22052 -2.97078 33331 ft 472 kts 158°
2026-04-24 09:29 54.15761 -2.93469 33337 ft 472 kts 159°
2026-04-24 09:30 54.09320 -2.89773 33338 ft 471 kts 159°
2026-04-24 09:30 54.02954 -2.86132 33339 ft 471 kts 159°
2026-04-24 09:31 53.96644 -2.82532 33349 ft 470 kts 159°
2026-04-24 09:31 53.90281 -2.78909 33335 ft 470 kts 159°
2026-04-24 09:32 53.83876 -2.75278 33336 ft 470 kts 159°
2026-04-24 09:32 53.77394 -2.71617 33344 ft 471 kts 159°
2026-04-24 09:33 53.70976 -2.68005 33341 ft 470 kts 160°
2026-04-24 09:33 53.64486 -2.64360 33351 ft 470 kts 160°
2026-04-24 09:34 53.58102 -2.60789 33334 ft 470 kts 160°
2026-04-24 09:34 53.51693 -2.57209 33351 ft 468 kts 160°
2026-04-24 09:35 53.45219 -2.53616 33340 ft 468 kts 160°
2026-04-24 09:35 53.38832 -2.50076 33348 ft 468 kts 160°
2026-04-24 09:36 53.32346 -2.46490 33348 ft 467 kts 161°
2026-04-24 09:36 53.25989 -2.42986 33343 ft 467 kts 161°
2026-04-24 09:37 53.19626 -2.39493 33361 ft 466 kts 161°
2026-04-24 09:37 53.13228 -2.35991 33350 ft 465 kts 161°
2026-04-24 09:38 53.06955 -2.32453 33343 ft 463 kts 159°
2026-04-24 09:38 53.00894 -2.27936 33348 ft 462 kts 152°
2026-04-24 09:39 52.95290 -2.22407 33353 ft 463 kts 147°
2026-04-24 09:39 52.92486 -2.19454 33168 ft 465 kts 147°
2026-04-24 09:39 52.89652 -2.16481 32706 ft 462 kts 147°
2026-04-24 09:40 52.86911 -2.13616 32104 ft 462 kts 147°
2026-04-24 09:40 52.84074 -2.10658 31409 ft 463 kts 147°
2026-04-24 09:40 52.81311 -2.07784 30852 ft 459 kts 147°
2026-04-24 09:40 52.78493 -2.04854 30376 ft 454 kts 146°
2026-04-24 09:41 52.75753 -2.02007 29861 ft 449 kts 146°
2026-04-24 09:41 52.73071 -1.99221 29366 ft 444 kts 146°
2026-04-24 09:41 52.70465 -1.96519 28906 ft 438 kts 146°
2026-04-24 09:41 52.67891 -1.93855 28430 ft 433 kts 146°
2026-04-24 09:42 52.65312 -1.91189 27958 ft 429 kts 147°
2026-04-24 09:42 52.62727 -1.88519 27459 ft 424 kts 147°
2026-04-24 09:42 52.60124 -1.85832 26979 ft 420 kts 147°
2026-04-24 09:42 52.57614 -1.83253 26519 ft 416 kts 147°
2026-04-24 09:43 52.55110 -1.80533 25989 ft 413 kts 142°
2026-04-24 09:43 52.52978 -1.77403 25425 ft 412 kts 136°
2026-04-24 09:43 52.50927 -1.74090 24788 ft 412 kts 135°
2026-04-24 09:43 52.48878 -1.70765 24227 ft 409 kts 136°
2026-04-24 09:44 52.46838 -1.67501 23765 ft 404 kts 136°
2026-04-24 09:44 52.44788 -1.64261 23338 ft 397 kts 136°
2026-04-24 09:44 52.42770 -1.61100 22912 ft 391 kts 136°
2026-04-24 09:44 52.40756 -1.57967 22442 ft 386 kts 137°
2026-04-24 09:45 52.38798 -1.54934 21980 ft 382 kts 137°
2026-04-24 09:45 52.36845 -1.51917 21525 ft 378 kts 137°
2026-04-24 09:45 52.34907 -1.48931 21054 ft 375 kts 137°
2026-04-24 09:45 52.32988 -1.45978 20578 ft 372 kts 137°
2026-04-24 09:46 52.31060 -1.43016 20088 ft 370 kts 137°
2026-04-24 09:46 52.29194 -1.40156 19620 ft 367 kts 137°
2026-04-24 09:46 52.27317 -1.37281 19170 ft 364 kts 137°
2026-04-24 09:46 52.25447 -1.34422 18726 ft 361 kts 138°
2026-04-24 09:47 52.23589 -1.31586 18264 ft 358 kts 138°
2026-04-24 09:47 52.21714 -1.28728 17766 ft 357 kts 137°
2026-04-24 09:47 52.19875 -1.25928 17284 ft 356 kts 137°
2026-04-24 09:47 52.18013 -1.23096 16824 ft 354 kts 137°
2026-04-24 09:48 52.16172 -1.20298 16381 ft 351 kts 137°
2026-04-24 09:48 52.14351 -1.17533 15905 ft 349 kts 137°
2026-04-24 09:48 52.12533 -1.14777 15447 ft 348 kts 136°
2026-04-24 09:48 52.10724 -1.12036 14949 ft 347 kts 136°
2026-04-24 09:49 52.08915 -1.09298 14469 ft 345 kts 136°
2026-04-24 09:49 52.07133 -1.06607 14005 ft 344 kts 136°
2026-04-24 09:49 52.05358 -1.03927 13550 ft 343 kts 136°
2026-04-24 09:49 52.03589 -1.01260 13086 ft 341 kts 136°
2026-04-24 09:50 52.01818 -0.98591 12637 ft 339 kts 136°
2026-04-24 09:50 52.00079 -0.95975 12201 ft 336 kts 136°
2026-04-24 09:50 51.98357 -0.93386 11789 ft 334 kts 136°
2026-04-24 09:50 51.96606 -0.90756 11343 ft 331 kts 136°
2026-04-24 09:51 51.94883 -0.88173 10905 ft 329 kts 135°
2026-04-24 09:51 51.93163 -0.85597 10521 ft 317 kts 135°
2026-04-24 09:51 51.91562 -0.83205 10463 ft 296 kts 135°
2026-04-24 09:51 51.90061 -0.80963 10419 ft 281 kts 135°
2026-04-24 09:52 51.88620 -0.78809 10357 ft 269 kts 135°
2026-04-24 09:52 51.87192 -0.76676 10003 ft 270 kts 135°
2026-04-24 09:52 51.85777 -0.74562 9638 ft 269 kts 135°
2026-04-24 09:52 51.84332 -0.72406 9375 ft 273 kts 135°
2026-04-24 09:53 51.82911 -0.70288 9336 ft 276 kts 135°
2026-04-24 09:53 51.81453 -0.68117 9332 ft 276 kts 135°
2026-04-24 09:53 51.80000 -0.65960 9328 ft 274 kts 135°
2026-04-24 09:53 51.78556 -0.63818 9046 ft 272 kts 135°
2026-04-24 09:54 51.77149 -0.61735 8621 ft 272 kts 135°
2026-04-24 09:54 51.75734 -0.59638 8348 ft 269 kts 135°
2026-04-24 09:54 51.74298 -0.57521 8339 ft 269 kts 137°
2026-04-24 09:54 51.72643 -0.56011 8312 ft 262 kts 163°
2026-04-24 09:55 51.70838 -0.55773 8326 ft 249 kts 178°
2026-04-24 09:55 51.69045 -0.55898 8337 ft 248 kts 180°
2026-04-24 09:55 51.67324 -0.56091 8334 ft 248 kts 184°
2026-04-24 09:55 51.65662 -0.57047 8202 ft 251 kts 213°
2026-04-24 09:56 51.64422 -0.59149 7841 ft 253 kts 232°
2026-04-24 09:56 51.63403 -0.61556 7459 ft 254 kts 235°
2026-04-24 09:56 51.62461 -0.63918 7132 ft 253 kts 236°
2026-04-24 09:56 51.61513 -0.66319 6820 ft 251 kts 236°
2026-04-24 09:57 51.60561 -0.68727 6496 ft 250 kts 236°
2026-04-24 09:57 51.59622 -0.71109 6164 ft 249 kts 236°
2026-04-24 09:57 51.58672 -0.73525 5829 ft 247 kts 236°
2026-04-24 09:57 51.57723 -0.75943 5491 ft 246 kts 236°
2026-04-24 09:58 51.56789 -0.78335 5146 ft 245 kts 236°
2026-04-24 09:58 51.55889 -0.80648 4802 ft 244 kts 236°
2026-04-24 09:58 51.54968 -0.83022 4463 ft 243 kts 236°
2026-04-24 09:58 51.54083 -0.85305 4141 ft 242 kts 236°
2026-04-24 09:59 51.52997 -0.87411 3782 ft 237 kts 211°
2026-04-24 09:59 51.51508 -0.88302 3437 ft 227 kts 178°
2026-04-24 09:59 51.49973 -0.87722 3071 ft 217 kts 144°
2026-04-24 09:59 51.48909 -0.86027 2725 ft 213 kts 124°
2026-04-24 10:00 51.48149 -0.83960 2488 ft 209 kts 110°
2026-04-24 10:00 51.47740 -0.81717 2484 ft 210 kts 98°
2026-04-24 10:00 51.47609 -0.79347 2479 ft 207 kts 90°
2026-04-24 10:00 51.47648 -0.77081 2459 ft 191 kts 88°
2026-04-24 10:01 51.47697 -0.74976 2475 ft 178 kts 88°
2026-04-24 10:01 51.47723 -0.72957 2550 ft 180 kts 89°
2026-04-24 10:01 51.47733 -0.70996 2489 ft 171 kts 89°
2026-04-24 10:01 51.47734 -0.69059 2482 ft 170 kts 90°
2026-04-24 10:02 51.47732 -0.67179 2375 ft 162 kts 90°
2026-04-24 10:02 51.47730 -0.65380 2192 ft 155 kts 89°
2026-04-24 10:02 51.47729 -0.63703 1973 ft 148 kts 89°
2026-04-24 10:02 51.47729 -0.62033 1776 ft 147 kts 89°
2026-04-24 10:03 51.47729 -0.60401 1570 ft 147 kts 88°
2026-04-24 10:03 51.47731 -0.58722 1353 ft 143 kts 89°
2026-04-24 10:03 51.47733 -0.57139 1156 ft 141 kts 88°
2026-04-24 10:03 51.47737 -0.55539 962 ft 140 kts 89°
2026-04-24 10:04 51.47723 -0.53971 774 ft 140 kts 89°
2026-04-24 10:04 51.47733 -0.52381 583 ft 139 kts 89°
2026-04-24 10:04 51.47743 -0.50821 410 ft 139 kts 90°
2026-04-24 10:04 51.47748 -0.49248 210 ft 138 kts 89°
2026-04-24 10:05 51.47753 -0.47719 94 ft 135 kts 88°
2026-04-24 10:05 51.47760 -0.46378 83 ft 95 kts 90°
2026-04-24 10:05 51.47759 -0.45653 82 ft 29 kts 89°
2026-04-24 10:05 51.47715 -0.45477 83 ft 13 kts 156°
2026-04-24 10:06 51.47645 -0.45466 84 ft 7 kts 178°
2026-04-24 10:06 51.47624 -0.45465 85 ft 0 kts 178°
2026-04-24 10:07 51.47601 -0.45491 85 ft 5 kts 251°
2026-04-24 10:07 51.47596 -0.45601 85 ft 13 kts 269°
2026-04-24 10:07 51.47596 -0.45755 83 ft 14 kts 269°
2026-04-24 10:07 51.47595 -0.45931 81 ft 15 kts 268°
2026-04-24 10:08 51.47593 -0.46101 81 ft 14 kts 268°
2026-04-24 10:08 51.47592 -0.46252 80 ft 11 kts 269°
2026-04-24 10:08 51.47592 -0.46391 81 ft 11 kts 270°
2026-04-24 10:08 51.47592 -0.46519 82 ft 11 kts 270°
2026-04-24 10:09 51.47592 -0.46657 82 ft 12 kts 269°
2026-04-24 10:09 51.47590 -0.46805 82 ft 13 kts 264°
2026-04-24 10:09 51.47581 -0.46975 82 ft 15 kts 269°
2026-04-24 10:09 51.47581 -0.47160 83 ft 15 kts 270°
2026-04-24 10:10 51.47581 -0.47341 83 ft 16 kts 269°
2026-04-24 10:10 51.47580 -0.47523 83 ft 16 kts 270°
2026-04-24 10:10 51.47579 -0.47716 82 ft 17 kts 269°
2026-04-24 10:10 51.47578 -0.47917 80 ft 18 kts 270°
2026-04-24 10:11 51.47578 -0.48115 79 ft 15 kts 269°
2026-04-24 10:11 51.47578 -0.48292 78 ft 14 kts 270°
2026-04-24 10:11 51.47575 -0.48430 79 ft 10 kts 255°
2026-04-24 10:11 51.47517 -0.48477 80 ft 10 kts 180°
2026-04-24 10:12 51.47438 -0.48475 77 ft 11 kts 179°
2026-04-24 10:12 51.47403 -0.48489 77 ft 4 kts 240°
2026-04-24 10:12 51.47398 -0.48538 77 ft 3 kts 270°
2026-04-24 10:12 51.47398 -0.48574 77 ft 0 kts 269°
2026-04-24 10:13 51.47398 -0.48578 77 ft 0 kts 269°
2026-04-24 10:13 51.47398 -0.48584 77 ft 0 kts 269°
2026-04-24 10:13 51.47398 -0.48585 77 ft 0 kts 269°